Location: De Har
(53.3413°N, 6.6858°E)
Time: 08:51:20
(UTC+00:00)

EP 1 - Pass Details

Date: 22 April 2026
Orbit: 314 x 1668 km, 63.3° (Epoch: 25 August)

Event Time Altitude Azimuth Distance (km) Brightness Sun altitude
Rises 02:34:37 0° 310° (NW) 2,095 8.2 -13.8°
Reaches altitude 10° 02:36:35 10° 306° (NW) 1,229 7.0 -13.6°
Maximum altitude 02:39:07 56° 227° (SW) 390 4.2 -13.3°
Drops below altitude 10° 02:41:48 10° 147° (SSE) 1,287 7.1 -13.0°
Sets 02:43:54 0° 143° (SE) 2,211 8.4 -12.8°
